Time,TemperatureF,DewpointF,PressureIn,WindDirection,WindDirectionDegrees,WindSpeedMPH,WindSpeedGustMPH,Humidity,HourlyPrecipIn,Conditions,Clouds,dailyrainin,SoftwareType,DateUTC
2013-03-04 00:00:00,30.0,19.7,29.76,NW,320,4.0,4.0,65,0.00,,---,0.00,VWS V14.01,2013-03-04 05:00:00,
2013-03-04 00:05:00,30.0,20.0,29.77,NNW,338,8.0,13.0,66,0.00,,---,0.00,VWS V14.01,2013-03-04 05:05:00,
2013-03-04 00:10:00,30.0,19.7,29.76,NW,319,2.0,7.0,65,0.00,,---,0.00,VWS V14.01,2013-03-04 05:10:00,
2013-03-04 00:15:00,29.9,19.2,29.76,NW,314,6.0,8.0,64,0.00,,---,0.00,VWS V14.01,2013-03-04 05:15:00,
2013-03-04 00:20:00,29.9,19.2,29.77,WNW,294,9.0,9.0,64,0.00,,---,0.00,VWS V14.01,2013-03-04 05:20:00,
2013-03-04 00:25:00,29.9,18.9,29.77,WNW,297,14.0,15.0,63,0.00,,---,0.00,VWS V14.01,2013-03-04 05:25:00,
2013-03-04 00:30:00,30.0,18.2,29.77,NW,315,3.0,5.0,61,0.00,,---,0.00,VWS V14.01,2013-03-04 05:30:00,
2013-03-04 00:35:00,29.9,18.1,29.77,NW,308,10.0,10.0,61,0.00,,---,0.00,VWS V14.01,2013-03-04 05:35:00,
2013-03-04 00:40:00,29.9,18.1,29.77,NW,304,6.0,9.0,61,0.00,,---,0.00,VWS V14.01,2013-03-04 05:40:00,
2013-03-04 00:45:00,29.8,18.0,29.77,NW,304,6.0,9.0,61,0.00,,---,0.00,VWS V14.01,2013-03-04 05:45:00,
2013-03-04 00:50:00,29.8,18.0,29.77,NNW,336,15.0,15.0,61,0.00,,---,0.00,VWS V14.01,2013-03-04 05:50:00,
2013-03-04 00:55:00,29.7,17.9,29.77,NW,325,5.0,5.0,61,0.00,,---,0.00,VWS V14.01,2013-03-04 05:55:00,
2013-03-04 01:00:00,29.7,17.5,29.77,North,351,9.0,12.0,60,0.00,,---,0.00,VWS V14.01,2013-03-04 06:00:00,
2013-03-04 01:05:00,29.6,17.8,29.77,NW,318,8.0,8.0,61,0.00,,---,0.00,VWS V14.01,2013-03-04 06:05:00,
2013-03-04 01:10:00,29.5,17.7,29.78,NW,308,7.0,7.0,61,0.00,,---,0.00,VWS V14.01,2013-03-04 06:10:00,
2013-03-04 01:15:00,29.4,17.6,29.78,NW,320,7.0,8.0,61,0.00,,---,0.00,VWS V14.01,2013-03-04 06:15:00,
2013-03-04 01:19:00,29.4,18.0,29.78,NW,319,3.0,3.0,62,0.00,,---,0.00,VWS V14.01,2013-03-04 06:19:00,
2013-03-04 01:20:00,28.8,17.8,29.78,WNW,293,9.0,13.0,63,0.00,,---,0.00,VWS V14.01,2013-03-04 06:20:00,
2013-03-04 01:24:00,29.3,17.5,29.78,NW,307,5.0,7.0,61,0.00,,---,0.00,VWS V14.01,2013-03-04 06:24:00,
2013-03-04 01:25:00,28.8,17.8,29.78,West,279,11.0,14.0,63,0.00,,---,0.00,VWS V14.01,2013-03-04 06:25:00,
2013-03-04 01:29:00,29.3,17.9,29.78,NW,312,6.0,6.0,62,0.00,,---,0.00,VWS V14.01,2013-03-04 06:29:00,
2013-03-04 01:30:00,28.8,17.8,29.78,WNW,300,7.0,16.0,63,0.00,,---,0.00,VWS V14.01,2013-03-04 06:30:00,
2013-03-04 01:34:00,29.2,17.8,29.78,NW,317,13.0,22.0,62,0.00,,---,0.00,VWS V14.01,2013-03-04 06:34:00,
2013-03-04 01:35:00,28.7,18.1,29.77,NW,322,3.0,10.0,64,0.00,,---,0.00,VWS V14.01,2013-03-04 06:35:00,
2013-03-04 01:39:00,29.2,17.8,29.77,NW,311,11.0,11.0,62,0.00,,---,0.00,VWS V14.01,2013-03-04 06:39:00,
2013-03-04 01:40:00,28.6,18.0,29.77,NW,306,8.0,14.0,64,0.00,,---,0.00,VWS V14.01,2013-03-04 06:40:00,
2013-03-04 01:44:00,29.2,17.8,29.78,WNW,282,6.0,21.0,62,0.00,,---,0.00,VWS V14.01,2013-03-04 06:44:00,
2013-03-04 01:45:00,28.5,17.9,29.77,NW,306,8.0,8.0,64,0.00,,---,0.00,VWS V14.01,2013-03-04 06:45:00,
2013-03-04 01:49:00,29.2,17.8,29.77,North,359,7.0,17.0,62,0.00,,---,0.00,VWS V14.01,2013-03-04 06:49:00,
2013-03-04 01:50:00,28.5,17.9,29.78,NW,306,8.0,8.0,64,0.00,,---,0.00,VWS V14.01,2013-03-04 06:50:00,
2013-03-04 01:54:00,29.0,17.6,29.77,NW,314,5.0,14.0,62,0.00,,---,0.00,VWS V14.01,2013-03-04 06:54:00,
2013-03-04 01:55:00,28.4,18.1,29.77,NW,306,8.0,8.0,65,0.00,,---,0.00,VWS V14.01,2013-03-04 06:55:00,
2013-03-04 01:59:00,29.0,17.6,29.78,NW,311,12.0,14.0,62,0.00,,---,0.00,VWS V14.01,2013-03-04 06:59:00,
2013-03-04 02:00:00,28.4,18.1,29.77,NW,306,8.0,8.0,65,0.00,,---,0.00,VWS V14.01,2013-03-04 07:00:00,
2013-03-04 02:04:00,29.0,17.6,29.77,NW,315,18.0,19.0,62,0.00,,---,0.00,VWS V14.01,2013-03-04 07:04:00,
2013-03-04 02:05:00,28.3,18.1,29.78,NW,306,8.0,8.0,65,0.00,,---,0.00,VWS V14.01,2013-03-04 07:05:00,
2013-03-04 02:09:00,29.0,17.6,29.78,NW,326,4.0,18.0,62,0.00,,---,0.00,VWS V14.01,2013-03-04 07:09:00,
2013-03-04 02:10:00,28.3,18.1,29.77,NW,306,8.0,8.0,65,0.00,,---,0.00,VWS V14.01,2013-03-04 07:10:00,
2013-03-04 02:14:00,28.9,17.9,29.77,NW,317,13.0,18.0,63,0.00,,---,0.00,VWS V14.01,2013-03-04 07:14:00,
2013-03-04 02:15:00,28.2,18.3,29.78,NW,306,8.0,8.0,66,0.00,,---,0.00,VWS V14.01,2013-03-04 07:15:00,
2013-03-04 02:19:00,28.8,17.8,29.78,WNW,302,7.0,13.0,63,0.00,,---,0.00,VWS V14.01,2013-03-04 07:19:00,
2013-03-04 02:20:00,28.1,18.2,29.78,NW,306,8.0,8.0,66,0.00,,---,0.00,VWS V14.01,2013-03-04 07:20:00,
2013-03-04 02:24:00,28.8,17.8,29.78,NW,305,9.0,14.0,63,0.00,,---,0.00,VWS V14.01,2013-03-04 07:24:00,
2013-03-04 02:25:00,28.1,18.2,29.78,WNW,285,6.0,9.0,66,0.00,,---,0.00,VWS V14.01,2013-03-04 07:25:00,
2013-03-04 02:29:00,28.8,17.8,29.78,WNW,300,8.0,16.0,63,0.00,,---,0.00,VWS V14.01,2013-03-04 07:29:00,
2013-03-04 02:30:00,28.1,18.2,29.78,WNW,302,8.0,13.0,66,0.00,,---,0.00,VWS V14.01,2013-03-04 07:30:00,
2013-03-04 02:34:00,28.7,18.1,29.77,NW,322,2.0,10.0,64,0.00,,---,0.00,VWS V14.01,2013-03-04 07:34:00,
2013-03-04 02:35:00,28.1,18.2,29.78,NW,307,4.0,13.0,66,0.00,,---,0.00,VWS V14.01,2013-03-04 07:35:00,
2013-03-04 02:39:00,28.6,18.0,29.77,NW,306,8.0,14.0,64,0.00,,---,0.00,VWS V14.01,2013-03-04 07:39:00,
2013-03-04 02:40:00,28.1,18.2,29.78,WNW,300,7.0,13.0,66,0.00,,---,0.00,VWS V14.01,2013-03-04 07:40:00,
2013-03-04 02:44:00,28.5,17.9,29.77,NW,306,8.0,8.0,64,0.00,,---,0.00,VWS V14.01,2013-03-04 07:44:00,
2013-03-04 02:45:00,28.2,18.3,29.78,NNW,329,5.0,16.0,66,0.00,,---,0.00,VWS V14.01,2013-03-04 07:45:00,
2013-03-04 02:49:00,28.5,17.9,29.78,NW,306,8.0,8.0,64,0.00,,---,0.00,VWS V14.01,2013-03-04 07:49:00,
2013-03-04 02:50:00,28.1,18.6,29.78,WNW,292,11.0,14.0,67,0.00,,---,0.00,VWS V14.01,2013-03-04 07:50:00,
2013-03-04 02:54:00,28.4,18.1,29.77,NW,306,8.0,8.0,65,0.00,,---,0.00,VWS V14.01,2013-03-04 07:54:00,
2013-03-04 02:55:00,28.1,18.6,29.78,West,281,8.0,11.0,67,0.00,,---,0.00,VWS V14.01,2013-03-04 07:55:00,
2013-03-04 02:59:00,28.3,18.1,29.77,NW,306,8.0,8.0,65,0.00,,---,0.00,VWS V14.01,2013-03-04 07:59:00,
2013-03-04 03:00:00,28.0,18.5,29.78,WNW,302,2.0,9.0,67,0.00,,---,0.00,VWS V14.01,2013-03-04 08:00:00,
2013-03-04 03:04:00,28.3,18.1,29.78,NW,306,8.0,8.0,65,0.00,,---,0.00,VWS V14.01,2013-03-04 08:04:00,
2013-03-04 03:05:00,28.0,18.5,29.78,NW,308,3.0,12.0,67,0.00,,---,0.00,VWS V14.01,2013-03-04 08:05:00,
2013-03-04 03:09:00,28.3,18.1,29.77,NW,306,8.0,8.0,65,0.00,,---,0.00,VWS V14.01,2013-03-04 08:09:00,
2013-03-04 03:10:00,28.0,18.5,29.78,NW,309,4.0,13.0,67,0.00,,---,0.00,VWS V14.01,2013-03-04 08:10:00,
2013-03-04 03:14:00,28.2,18.3,29.78,NW,306,8.0,8.0,66,0.00,,---,0.00,VWS V14.01,2013-03-04 08:14:00,
2013-03-04 03:15:00,28.0,18.5,29.78,North,350,7.0,12.0,67,0.00,,---,0.00,VWS V14.01,2013-03-04 08:15:00,
2013-03-04 03:19:00,28.2,18.3,29.78,NW,306,8.0,8.0,66,0.00,,---,0.00,VWS V14.01,2013-03-04 08:19:00,
2013-03-04 03:20:00,28.0,18.5,29.78,WNW,297,5.0,14.0,67,0.00,,---,0.00,VWS V14.01,2013-03-04 08:20:00,
2013-03-04 03:24:00,28.1,18.2,29.78,NW,305,2.0,9.0,66,0.00,,---,0.00,VWS V14.01,2013-03-04 08:24:00,
2013-03-04 03:25:00,28.1,18.6,29.78,WNW,288,4.0,11.0,67,0.00,,---,0.00,VWS V14.01,2013-03-04 08:25:00,
2013-03-04 03:29:00,28.1,18.2,29.78,NW,304,7.0,13.0,66,0.00,,---,0.00,VWS V14.01,2013-03-04 08:29:00,
2013-03-04 03:30:00,28.1,18.6,29.79,WNW,285,7.0,17.0,67,0.00,,---,0.00,VWS V14.01,2013-03-04 08:30:00,
2013-03-04 03:34:00,28.2,18.3,29.78,NW,311,7.0,13.0,66,0.00,,---,0.00,VWS V14.01,2013-03-04 08:34:00,
2013-03-04 03:35:00,28.0,18.8,29.79,WNW,288,10.0,12.0,68,0.00,,---,0.00,VWS V14.01,2013-03-04 08:35:00,
2013-03-04 03:39:00,28.1,18.2,29.78,WNW,302,6.0,13.0,66,0.00,,---,0.00,VWS V14.01,2013-03-04 08:39:00,
2013-03-04 03:40:00,28.0,18.8,29.79,NNW,334,3.0,12.0,68,0.00,,---,0.00,VWS V14.01,2013-03-04 08:40:00,
2013-03-04 03:44:00,28.2,18.3,29.78,WNW,303,7.0,16.0,66,0.00,,---,0.00,VWS V14.01,2013-03-04 08:44:00,
2013-03-04 03:45:00,27.9,18.7,29.79,WNW,286,6.0,9.0,68,0.00,,---,0.00,VWS V14.01,2013-03-04 08:45:00,
2013-03-04 03:49:00,28.1,18.6,29.78,NW,319,5.0,14.0,67,0.00,,---,0.00,VWS V14.01,2013-03-04 08:49:00,
2013-03-04 03:50:00,27.9,18.7,29.79,WNW,292,8.0,11.0,68,0.00,,---,0.00,VWS V14.01,2013-03-04 08:50:00,
2013-03-04 03:54:00,28.1,18.6,29.78,WNW,289,8.0,11.0,67,0.00,,---,0.00,VWS V14.01,2013-03-04 08:54:00,
2013-03-04 03:55:00,28.0,18.8,29.79,WNW,297,9.0,10.0,68,0.00,,---,0.00,VWS V14.01,2013-03-04 08:55:00,
2013-03-04 03:59:00,28.1,18.6,29.78,WNW,302,3.0,9.0,67,0.00,,---,0.00,VWS V14.01,2013-03-04 08:59:00,
2013-03-04 04:00:00,28.0,18.8,29.79,WNW,297,4.0,11.0,68,0.00,,---,0.00,VWS V14.01,2013-03-04 09:00:00,
2013-03-04 04:04:00,28.0,18.5,29.78,West,277,3.0,12.0,67,0.00,,---,0.00,VWS V14.01,2013-03-04 09:04:00,
2013-03-04 04:05:00,27.9,18.7,29.79,WNW,288,7.0,11.0,68,0.00,,---,0.00,VWS V14.01,2013-03-04 09:05:00,
2013-03-04 04:09:00,28.0,18.5,29.78,NW,313,5.0,13.0,67,0.00,,---,0.00,VWS V14.01,2013-03-04 09:09:00,
2013-03-04 04:10:00,28.0,18.8,29.79,WNW,302,9.0,13.0,68,0.00,,---,0.00,VWS V14.01,2013-03-04 09:10:00,
2013-03-04 04:14:00,28.0,18.5,29.78,WNW,300,7.0,12.0,67,0.00,,---,0.00,VWS V14.01,2013-03-04 09:14:00,
2013-03-04 04:15:00,28.0,18.8,29.79,NW,313,6.0,11.0,68,0.00,,---,0.00,VWS V14.01,2013-03-04 09:15:00,
2013-03-04 04:19:00,28.1,18.6,29.78,NW,318,9.0,14.0,67,0.00,,---,0.00,VWS V14.01,2013-03-04 09:19:00,
2013-03-04 04:20:00,28.0,18.8,29.80,NW,306,2.0,12.0,68,0.00,,---,0.00,VWS V14.01,2013-03-04 09:20:00,
2013-03-04 04:24:00,28.0,18.5,29.78,WNW,298,8.0,11.0,67,0.00,,---,0.00,VWS V14.01,2013-03-04 09:24:00,
2013-03-04 04:25:00,27.9,18.7,29.80,NW,310,5.0,10.0,68,0.00,,---,0.00,VWS V14.01,2013-03-04 09:25:00,
2013-03-04 04:29:00,28.1,18.6,29.79,WNW,296,6.0,17.0,67,0.00,,---,0.00,VWS V14.01,2013-03-04 09:29:00,
2013-03-04 04:30:00,28.0,18.8,29.80,NNW,348,5.0,11.0,68,0.00,,---,0.00,VWS V14.01,2013-03-04 09:30:00,
2013-03-04 04:34:00,28.1,18.9,29.79,WNW,300,6.0,12.0,68,0.00,,---,0.00,VWS V14.01,2013-03-04 09:34:00,
2013-03-04 04:35:00,28.0,18.8,29.80,WNW,296,7.0,11.0,68,0.00,,---,0.00,VWS V14.01,2013-03-04 09:35:00,
2013-03-04 04:39:00,28.0,18.8,29.79,NW,325,4.0,12.0,68,0.00,,---,0.00,VWS V14.01,2013-03-04 09:39:00,
2013-03-04 04:40:00,27.9,18.7,29.80,NW,307,7.0,12.0,68,0.00,,---,0.00,VWS V14.01,2013-03-04 09:40:00,
2013-03-04 04:44:00,27.9,18.7,29.79,NW,311,1.0,9.0,68,0.00,,---,0.00,VWS V14.01,2013-03-04 09:44:00,
2013-03-04 04:45:00,27.9,18.7,29.80,WNW,284,8.0,11.0,68,0.00,,---,0.00,VWS V14.01,2013-03-04 09:45:00,
2013-03-04 04:49:00,27.9,18.7,29.79,WNW,295,6.0,11.0,68,0.00,,---,0.00,VWS V14.01,2013-03-04 09:49:00,
2013-03-04 04:50:00,27.9,18.7,29.80,NW,310,8.0,11.0,68,0.00,,---,0.00,VWS V14.01,2013-03-04 09:50:00,
2013-03-04 04:54:00,28.0,18.8,29.79,NNW,329,8.0,9.0,68,0.00,,---,0.00,VWS V14.01,2013-03-04 09:54:00,
2013-03-04 04:55:00,27.8,19.0,29.80,NNW,334,5.0,11.0,69,0.00,,---,0.00,VWS V14.01,2013-03-04 09:55:00,
2013-03-04 04:59:00,28.0,18.8,29.79,WNW,298,5.0,11.0,68,0.00,,---,0.00,VWS V14.01,2013-03-04 09:59:00,
2013-03-04 05:00:00,27.9,19.1,29.81,NW,308,7.0,12.0,69,0.00,,---,0.00,VWS V14.01,2013-03-04 10:00:00,
2013-03-04 05:04:00,28.0,18.8,29.79,WNW,295,10.0,11.0,68,0.00,,---,0.00,VWS V14.01,2013-03-04 10:04:00,
2013-03-04 05:05:00,27.9,19.1,29.81,NNW,329,6.0,11.0,69,0.00,,---,0.00,VWS V14.01,2013-03-04 10:05:00,
2013-03-04 05:09:00,28.0,18.8,29.79,NW,305,9.0,13.0,68,0.00,,---,0.00,VWS V14.01,2013-03-04 10:09:00,
2013-03-04 05:10:00,27.8,19.0,29.81,NW,318,8.0,12.0,69,0.00,,---,0.00,VWS V14.01,2013-03-04 10:10:00,
2013-03-04 05:14:00,28.0,18.8,29.79,NW,319,6.0,11.0,68,0.00,,---,0.00,VWS V14.01,2013-03-04 10:14:00,
2013-03-04 05:15:00,27.9,19.1,29.81,NW,311,6.0,11.0,69,0.00,,---,0.00,VWS V14.01,2013-03-04 10:15:00,
2013-03-04 05:19:00,28.0,18.8,29.80,West,275,4.0,12.0,68,0.00,,---,0.00,VWS V14.01,2013-03-04 10:19:00,
2013-03-04 05:20:00,27.9,19.1,29.81,NW,309,4.0,9.0,69,0.00,,---,0.00,VWS V14.01,2013-03-04 10:20:00,
2013-03-04 05:24:00,27.9,18.7,29.80,NW,304,5.0,10.0,68,0.00,,---,0.00,VWS V14.01,2013-03-04 10:24:00,
2013-03-04 05:25:00,27.8,19.0,29.81,NW,311,7.0,13.0,69,0.00,,---,0.00,VWS V14.01,2013-03-04 10:25:00,
2013-03-04 05:29:00,28.0,18.8,29.80,WNW,288,5.0,11.0,68,0.00,,---,0.00,VWS V14.01,2013-03-04 10:29:00,
2013-03-04 05:30:00,27.9,19.1,29.81,NW,304,6.0,14.0,69,0.00,,---,0.00,VWS V14.01,2013-03-04 10:30:00,
2013-03-04 05:34:00,28.0,18.8,29.80,NW,318,6.0,11.0,68,0.00,,---,0.00,VWS V14.01,2013-03-04 10:34:00,
2013-03-04 05:35:00,28.0,19.2,29.81,NNW,327,5.0,13.0,69,0.00,,---,0.00,VWS V14.01,2013-03-04 10:35:00,
2013-03-04 05:39:00,27.9,18.7,29.80,NW,304,4.0,12.0,68,0.00,,---,0.00,VWS V14.01,2013-03-04 10:39:00,
2013-03-04 05:40:00,28.1,19.3,29.81,WNW,296,10.0,10.0,69,0.00,,---,0.00,VWS V14.01,2013-03-04 10:40:00,
2013-03-04 05:44:00,27.9,18.7,29.80,WNW,302,10.0,10.0,68,0.00,,---,0.00,VWS V14.01,2013-03-04 10:44:00,
2013-03-04 05:45:00,28.2,19.4,29.81,WNW,296,10.0,10.0,69,0.00,,---,0.00,VWS V14.01,2013-03-04 10:45:00,
2013-03-04 05:49:00,27.9,18.7,29.80,WNW,283,4.0,11.0,68,0.00,,---,0.00,VWS V14.01,2013-03-04 10:49:00,
2013-03-04 05:50:00,28.3,19.5,29.81,WNW,296,10.0,10.0,69,0.00,,---,0.00,VWS V14.01,2013-03-04 10:50:00,
2013-03-04 05:54:00,27.9,18.7,29.80,NW,315,4.0,11.0,68,0.00,,---,0.00,VWS V14.01,2013-03-04 10:54:00,
2013-03-04 05:55:00,28.3,19.1,29.82,WNW,296,10.0,10.0,68,0.00,,---,0.00,VWS V14.01,2013-03-04 10:55:00,
2013-03-04 05:59:00,27.8,19.0,29.81,NW,313,5.0,12.0,69,0.00,,---,0.00,VWS V14.01,2013-03-04 10:59:00,
2013-03-04 06:00:00,28.4,19.2,29.82,WNW,296,10.0,10.0,68,0.00,,---,0.00,VWS V14.01,2013-03-04 11:00:00,
2013-03-04 06:04:00,27.9,19.1,29.81,NW,311,2.0,11.0,69,0.00,,---,0.00,VWS V14.01,2013-03-04 11:04:00,
2013-03-04 06:05:00,28.5,19.6,29.82,WNW,302,7.0,15.0,69,0.00,,---,0.00,VWS V14.01,2013-03-04 11:05:00,
2013-03-04 06:09:00,27.8,19.0,29.81,WNW,287,3.0,10.0,69,0.00,,---,0.00,VWS V14.01,2013-03-04 11:09:00,
2013-03-04 06:10:00,28.7,19.5,29.82,NW,325,9.0,14.0,68,0.00,,---,0.00,VWS V14.01,2013-03-04 11:10:00,
2013-03-04 06:14:00,27.9,19.1,29.81,NNW,327,5.0,11.0,69,0.00,,---,0.00,VWS V14.01,2013-03-04 11:14:00,
2013-03-04 06:15:00,29.1,19.9,29.82,NW,313,10.0,16.0,68,0.00,,---,0.00,VWS V14.01,2013-03-04 11:15:00,
2013-03-04 06:19:00,27.9,19.1,29.81,NW,309,3.0,9.0,69,0.00,,---,0.00,VWS V14.01,2013-03-04 11:19:00,
2013-03-04 06:20:00,29.4,19.8,29.82,SW,224,4.0,16.0,67,0.00,,---,0.00,VWS V14.01,2013-03-04 11:20:00,
2013-03-04 06:24:00,27.8,19.0,29.81,NW,325,3.0,13.0,69,0.00,,---,0.00,VWS V14.01,2013-03-04 11:24:00,
2013-03-04 06:25:00,29.7,20.1,29.82,WNW,300,10.0,16.0,67,0.00,,---,0.00,VWS V14.01,2013-03-04 11:25:00,
2013-03-04 06:29:00,27.9,19.1,29.81,NW,309,6.0,14.0,69,0.00,,---,0.00,VWS V14.01,2013-03-04 11:29:00,
2013-03-04 06:30:00,29.9,19.9,29.82,NW,306,9.0,18.0,66,0.00,,---,0.00,VWS V14.01,2013-03-04 11:30:00,
2013-03-04 06:34:00,28.0,19.2,29.81,WNW,297,8.0,13.0,69,0.00,,---,0.00,VWS V14.01,2013-03-04 11:34:00,
2013-03-04 06:35:00,30.1,20.1,29.82,West,278,5.0,13.0,66,0.00,,---,0.00,VWS V14.01,2013-03-04 11:35:00,
2013-03-04 06:39:00,28.1,19.3,29.81,WNW,296,10.0,10.0,69,0.00,,---,0.00,VWS V14.01,2013-03-04 11:39:00,
2013-03-04 06:40:00,30.5,20.1,29.83,NW,307,12.0,17.0,65,0.00,,---,0.00,VWS V14.01,2013-03-04 11:40:00,
2013-03-04 06:44:00,28.1,19.3,29.81,WNW,296,10.0,10.0,69,0.00,,---,0.00,VWS V14.01,2013-03-04 11:44:00,
2013-03-04 06:45:00,30.7,20.3,29.83,NNW,334,9.0,14.0,65,0.00,,---,0.00,VWS V14.01,2013-03-04 11:45:00,
2013-03-04 06:49:00,28.3,19.5,29.81,WNW,296,10.0,10.0,69,0.00,,---,0.00,VWS V14.01,2013-03-04 11:49:00,
2013-03-04 06:50:00,30.9,20.5,29.83,NW,322,10.0,17.0,65,0.00,,---,0.00,VWS V14.01,2013-03-04 11:50:00,
2013-03-04 06:54:00,28.3,19.1,29.82,WNW,296,10.0,10.0,68,0.00,,---,0.00,VWS V14.01,2013-03-04 11:54:00,
2013-03-04 06:55:00,31.2,20.8,29.83,WNW,297,10.0,18.0,65,0.00,,---,0.00,VWS V14.01,2013-03-04 11:55:00,
2013-03-04 06:59:00,28.4,19.2,29.82,WNW,296,10.0,10.0,68,0.00,,---,0.00,VWS V14.01,2013-03-04 11:59:00,
2013-03-04 07:00:00,31.4,20.6,29.83,NNW,327,8.0,16.0,64,0.00,,---,0.00,VWS V14.01,2013-03-04 12:00:00,
2013-03-04 07:04:00,28.5,19.6,29.82,WNW,292,4.0,15.0,69,0.00,,---,0.00,VWS V14.01,2013-03-04 12:04:00,
2013-03-04 07:05:00,31.5,20.7,29.82,WNW,302,5.0,17.0,64,0.00,,---,0.00,VWS V14.01,2013-03-04 12:05:00,
2013-03-04 07:09:00,28.7,19.8,29.82,NW,315,5.0,14.0,69,0.00,,---,0.00,VWS V14.01,2013-03-04 12:09:00,
2013-03-04 07:10:00,31.7,20.6,29.82,WNW,300,9.0,23.0,63,0.00,,---,0.00,VWS V14.01,2013-03-04 12:10:00,
2013-03-04 07:14:00,29.0,19.8,29.82,NW,315,11.0,16.0,68,0.00,,---,0.00,VWS V14.01,2013-03-04 12:14:00,
2013-03-04 07:15:00,31.8,20.7,29.82,NNW,333,7.0,15.0,63,0.00,,---,0.00,VWS V14.01,2013-03-04 12:15:00,
2013-03-04 07:19:00,29.4,19.8,29.82,NW,313,10.0,16.0,67,0.00,,---,0.00,VWS V14.01,2013-03-04 12:19:00,
2013-03-04 07:20:00,31.8,20.7,29.82,West,279,4.0,17.0,63,0.00,,---,0.00,VWS V14.01,2013-03-04 12:20:00,
2013-03-04 07:24:00,29.7,20.1,29.82,WNW,287,12.0,16.0,67,0.00,,---,0.00,VWS V14.01,2013-03-04 12:24:00,
2013-03-04 07:25:00,32.0,20.9,29.82,WNW,292,11.0,17.0,63,0.00,,---,0.00,VWS V14.01,2013-03-04 12:25:00,
2013-03-04 07:29:00,29.9,20.3,29.82,NNW,331,10.0,18.0,67,0.00,,---,0.00,VWS V14.01,2013-03-04 12:29:00,
2013-03-04 07:30:00,32.1,20.9,29.83,WNW,296,7.0,20.0,63,0.00,,---,0.00,VWS V14.01,2013-03-04 12:30:00,
2013-03-04 07:34:00,30.1,20.1,29.82,NNW,342,8.0,13.0,66,0.00,,---,0.00,VWS V14.01,2013-03-04 12:34:00,
2013-03-04 07:35:00,32.2,21.0,29.83,NNW,329,11.0,20.0,63,0.00,,---,0.00,VWS V14.01,2013-03-04 12:35:00,
2013-03-04 07:39:00,30.5,20.1,29.83,NW,307,6.0,17.0,65,0.00,,---,0.00,VWS V14.01,2013-03-04 12:39:00,
2013-03-04 07:40:00,32.4,21.2,29.82,NW,308,6.0,21.0,63,0.00,,---,0.00,VWS V14.01,2013-03-04 12:40:00,
2013-03-04 07:44:00,30.6,20.2,29.83,NNW,334,5.0,14.0,65,0.00,,---,0.00,VWS V14.01,2013-03-04 12:44:00,
2013-03-04 07:45:00,32.8,21.2,29.82,NW,317,10.0,17.0,62,0.00,,---,0.00,VWS V14.01,2013-03-04 12:45:00,
2013-03-04 07:49:00,30.9,20.2,29.83,NNW,336,8.0,17.0,64,0.00,,---,0.00,VWS V14.01,2013-03-04 12:49:00,
2013-03-04 07:50:00,32.5,20.9,29.82,NW,324,4.0,22.0,62,0.00,,---,0.00,VWS V14.01,2013-03-04 12:50:00,
2013-03-04 07:54:00,31.1,20.7,29.83,North,353,6.0,18.0,65,0.00,,---,0.00,VWS V14.01,2013-03-04 12:54:00,
2013-03-04 07:55:00,32.9,20.9,29.82,NW,319,4.0,17.0,61,0.00,,---,0.00,VWS V14.01,2013-03-04 12:55:00,
2013-03-04 07:59:00,31.3,20.5,29.83,WNW,298,9.0,15.0,64,0.00,,---,0.00,VWS V14.01,2013-03-04 12:59:00,
2013-03-04 08:00:00,33.3,21.3,29.82,NNW,328,12.0,18.0,61,0.00,,---,0.00,VWS V14.01,2013-03-04 13:00:00,
2013-03-04 08:04:00,31.5,20.7,29.82,NW,318,3.0,17.0,64,0.00,,---,0.00,VWS V14.01,2013-03-04 13:04:00,
2013-03-04 08:05:00,33.0,21.0,29.82,NW,325,9.0,21.0,61,0.00,,---,0.00,VWS V14.01,2013-03-04 13:05:00,
2013-03-04 08:09:00,31.7,20.9,29.82,NNW,332,11.0,23.0,64,0.00,,---,0.00,VWS V14.01,2013-03-04 13:09:00,
2013-03-04 08:10:00,33.1,21.1,29.82,WNW,288,13.0,18.0,61,0.00,,---,0.00,VWS V14.01,2013-03-04 13:10:00,
2013-03-04 08:14:00,31.8,20.7,29.82,NW,312,9.0,15.0,63,0.00,,---,0.00,VWS V14.01,2013-03-04 13:14:00,
2013-03-04 08:15:00,33.4,21.4,29.81,NW,306,11.0,18.0,61,0.00,,---,0.00,VWS V14.01,2013-03-04 13:15:00,
2013-03-04 08:19:00,31.9,20.8,29.82,NW,321,10.0,17.0,63,0.00,,---,0.00,VWS V14.01,2013-03-04 13:19:00,
2013-03-04 08:20:00,33.9,21.5,29.82,NW,306,9.0,16.0,60,0.00,,---,0.00,VWS V14.01,2013-03-04 13:20:00,
2013-03-04 08:24:00,32.0,20.9,29.82,NNW,338,11.0,16.0,63,0.00,,---,0.00,VWS V14.01,2013-03-04 13:24:00,
2013-03-04 08:25:00,34.5,21.7,29.82,WNW,290,19.0,19.0,59,0.00,,---,0.00,VWS V14.01,2013-03-04 13:25:00,
2013-03-04 08:29:00,32.2,21.0,29.83,NNW,327,8.0,20.0,63,0.00,,---,0.00,VWS V14.01,2013-03-04 13:29:00,
2013-03-04 08:30:00,33.9,21.1,29.82,NW,305,18.0,24.0,59,0.00,,---,0.00,VWS V14.01,2013-03-04 13:30:00,
2013-03-04 08:34:00,32.2,21.0,29.83,NW,308,14.0,20.0,63,0.00,,---,0.00,VWS V14.01,2013-03-04 13:34:00,
2013-03-04 08:35:00,34.3,21.9,29.82,NW,310,13.0,18.0,60,0.00,,---,0.00,VWS V14.01,2013-03-04 13:35:00,
2013-03-04 08:38:00,32.3,21.1,29.82,WNW,300,8.0,21.0,63,0.00,,---,0.00,VWS V14.01,2013-03-04 13:38:00,
2013-03-04 08:40:00,34.4,21.6,29.82,NW,304,9.0,18.0,59,0.00,,---,0.00,VWS V14.01,2013-03-04 13:40:00,
2013-03-04 08:43:00,32.8,21.2,29.82,WNW,282,9.0,16.0,62,0.00,,---,0.00,VWS V14.01,2013-03-04 13:43:00,
2013-03-04 08:45:00,34.3,21.5,29.82,WNW,302,13.0,21.0,59,0.00,,---,0.00,VWS V14.01,2013-03-04 13:45:00,
2013-03-04 08:48:00,32.4,20.9,29.82,NW,307,4.0,22.0,62,0.00,,---,0.00,VWS V14.01,2013-03-04 13:48:00,
2013-03-04 08:50:00,34.4,22.0,29.82,NW,321,14.0,19.0,60,0.00,,---,0.00,VWS V14.01,2013-03-04 13:50:00,
2013-03-04 08:53:00,32.9,21.3,29.82,WNW,302,8.0,14.0,62,0.00,,---,0.00,VWS V14.01,2013-03-04 13:53:00,
2013-03-04 08:55:00,34.6,21.4,29.82,West,272,4.0,24.0,58,0.00,,---,0.00,VWS V14.01,2013-03-04 13:55:00,
2013-03-04 08:58:00,33.3,21.7,29.82,WNW,298,15.0,18.0,62,0.00,,---,0.00,VWS V14.01,2013-03-04 13:58:00,
2013-03-04 09:00:00,34.2,21.0,29.82,NNW,327,7.0,22.0,58,0.00,,---,0.00,VWS V14.01,2013-03-04 14:00:00,
2013-03-04 09:03:00,33.1,21.1,29.82,NW,313,13.0,21.0,61,0.00,,---,0.00,VWS V14.01,2013-03-04 14:03:00,
2013-03-04 09:05:00,34.9,21.6,29.83,WNW,300,20.0,20.0,58,0.00,,---,0.00,VWS V14.01,2013-03-04 14:05:00,
2013-03-04 09:08:00,33.1,21.1,29.82,West,279,9.0,18.0,61,0.00,,---,0.00,VWS V14.01,2013-03-04 14:08:00,
2013-03-04 09:10:00,34.9,21.2,29.82,NW,310,8.0,23.0,57,0.00,,---,0.00,VWS V14.01,2013-03-04 14:10:00,
2013-03-04 09:13:00,33.4,21.4,29.82,NW,306,11.0,18.0,61,0.00,,---,0.00,VWS V14.01,2013-03-04 14:13:00,
2013-03-04 09:15:00,35.3,21.6,29.82,North,8,12.0,17.0,57,0.00,,---,0.00,VWS V14.01,2013-03-04 14:15:00,
2013-03-04 09:18:00,33.8,21.4,29.82,NW,320,9.0,16.0,60,0.00,,---,0.00,VWS V14.01,2013-03-04 14:18:00,
2013-03-04 09:20:00,35.0,21.3,29.82,NNW,340,13.0,17.0,57,0.00,,---,0.00,VWS V14.01,2013-03-04 14:20:00,
2013-03-04 09:23:00,34.4,22.0,29.82,NW,305,7.0,16.0,60,0.00,,---,0.00,VWS V14.01,2013-03-04 14:23:00,
2013-03-04 09:25:00,35.5,21.8,29.82,WNW,287,8.0,19.0,57,0.00,,---,0.00,VWS V14.01,2013-03-04 14:25:00,
2013-03-04 09:28:00,34.1,21.7,29.82,NW,307,8.0,21.0,60,0.00,,---,0.00,VWS V14.01,2013-03-04 14:28:00,
2013-03-04 09:30:00,36.0,22.3,29.82,WNW,294,12.0,18.0,57,0.00,,---,0.00,VWS V14.01,2013-03-04 14:30:00,
2013-03-04 09:33:00,34.1,21.7,29.82,NW,322,13.0,18.0,60,0.00,,---,0.00,VWS V14.01,2013-03-04 14:33:00,
2013-03-04 09:35:00,36.0,21.4,29.82,NW,319,6.0,19.0,55,0.00,,---,0.00,VWS V14.01,2013-03-04 14:35:00,
2013-03-04 09:38:00,34.4,21.6,29.82,WNW,292,13.0,18.0,59,0.00,,---,0.00,VWS V14.01,2013-03-04 14:38:00,
2013-03-04 09:40:00,36.0,21.4,29.82,NW,315,13.0,18.0,55,0.00,,---,0.00,VWS V14.01,2013-03-04 14:40:00,
2013-03-04 09:43:00,34.4,21.2,29.82,WNW,286,7.0,21.0,58,0.00,,---,0.00,VWS V14.01,2013-03-04 14:43:00,
2013-03-04 09:45:00,36.0,21.4,29.82,WNW,286,10.0,21.0,55,0.00,,---,0.00,VWS V14.01,2013-03-04 14:45:00,
2013-03-04 09:48:00,34.1,21.3,29.82,NW,306,6.0,19.0,59,0.00,,---,0.00,VWS V14.01,2013-03-04 14:48:00,
2013-03-04 09:50:00,36.3,21.7,29.82,NNW,335,5.0,17.0,55,0.00,,---,0.00,VWS V14.01,2013-03-04 14:50:00,
2013-03-04 09:53:00,34.6,21.4,29.83,WNW,300,13.0,19.0,58,0.00,,---,0.00,VWS V14.01,2013-03-04 14:53:00,
2013-03-04 09:55:00,36.3,21.3,29.82,WNW,299,8.0,19.0,54,0.00,,---,0.00,VWS V14.01,2013-03-04 14:55:00,
2013-03-04 09:58:00,34.2,21.0,29.83,NW,317,15.0,22.0,58,0.00,,---,0.00,VWS V14.01,2013-03-04 14:58:00,
2013-03-04 10:00:00,36.5,21.9,29.82,WNW,302,9.0,17.0,55,0.00,,---,0.00,VWS V14.01,2013-03-04 15:00:00,
2013-03-04 10:03:00,34.6,21.8,29.83,NW,324,7.0,15.0,59,0.00,,---,0.00,VWS V14.01,2013-03-04 15:03:00,
2013-03-04 10:05:00,36.1,21.1,29.82,WNW,303,10.0,20.0,54,0.00,,---,0.00,VWS V14.01,2013-03-04 15:05:00,
2013-03-04 10:08:00,35.0,21.7,29.82,WNW,288,12.0,20.0,58,0.00,,---,0.00,VWS V14.01,2013-03-04 15:08:00,
2013-03-04 10:10:00,36.3,21.7,29.82,WNW,300,9.0,24.0,55,0.00,,---,0.00,VWS V14.01,2013-03-04 15:10:00,
2013-03-04 10:13:00,35.3,21.6,29.82,WNW,303,11.0,17.0,57,0.00,,---,0.00,VWS V14.01,2013-03-04 15:13:00,
2013-03-04 10:15:00,37.1,22.0,29.82,WNW,297,10.0,17.0,54,0.00,,---,0.00,VWS V14.01,2013-03-04 15:15:00,
2013-03-04 10:18:00,35.1,21.4,29.82,NW,325,6.0,17.0,57,0.00,,---,0.00,VWS V14.01,2013-03-04 15:18:00,
2013-03-04 10:20:00,36.7,21.2,29.82,West,279,10.0,26.0,53,0.00,,---,0.00,VWS V14.01,2013-03-04 15:20:00,
2013-03-04 10:23:00,35.3,21.6,29.82,NW,323,5.0,19.0,57,0.00,,---,0.00,VWS V14.01,2013-03-04 15:23:00,
2013-03-04 10:25:00,37.2,21.7,29.82,NW,312,11.0,21.0,53,0.00,,---,0.00,VWS V14.01,2013-03-04 15:25:00,
2013-03-04 10:28:00,35.7,21.1,29.82,NW,313,5.0,18.0,55,0.00,,---,0.00,VWS V14.01,2013-03-04 15:28:00,
2013-03-04 10:30:00,37.3,21.8,29.82,NNW,338,12.0,22.0,53,0.00,,---,0.00,VWS V14.01,2013-03-04 15:30:00,
2013-03-04 10:33:00,36.1,21.5,29.82,NW,317,9.0,19.0,55,0.00,,---,0.00,VWS V14.01,2013-03-04 15:33:00,
2013-03-04 10:35:00,37.8,21.8,29.82,West,273,11.0,16.0,52,0.00,,---,0.00,VWS V14.01,2013-03-04 15:35:00,
2013-03-04 10:38:00,36.0,21.4,29.82,West,275,9.0,18.0,55,0.00,,---,0.00,VWS V14.01,2013-03-04 15:38:00,
2013-03-04 10:40:00,37.8,21.8,29.81,West,265,7.0,18.0,52,0.00,,---,0.00,VWS V14.01,2013-03-04 15:40:00,
2013-03-04 10:43:00,36.1,21.5,29.83,WNW,298,14.0,21.0,55,0.00,,---,0.00,VWS V14.01,2013-03-04 15:43:00,
2013-03-04 10:45:00,38.3,21.8,29.81,WNW,299,9.0,20.0,51,0.00,,---,0.00,VWS V14.01,2013-03-04 15:45:00,
2013-03-04 10:48:00,36.2,22.0,29.83,NW,315,7.0,17.0,56,0.00,,---,0.00,VWS V14.01,2013-03-04 15:48:00,
2013-03-04 10:50:00,38.2,21.2,29.81,NW,309,12.0,20.0,50,0.00,,---,0.00,VWS V14.01,2013-03-04 15:50:00,
2013-03-04 10:53:00,36.4,21.4,29.82,WNW,302,16.0,19.0,54,0.00,,---,0.00,VWS V14.01,2013-03-04 15:53:00,
2013-03-04 10:55:00,38.3,22.2,29.81,NW,321,9.0,19.0,52,0.00,,---,0.00,VWS V14.01,2013-03-04 15:55:00,
2013-03-04 10:58:00,36.3,21.7,29.82,WNW,283,10.0,17.0,55,0.00,,---,0.00,VWS V14.01,2013-03-04 15:58:00,
2013-03-04 11:00:00,38.7,22.1,29.81,WNW,292,9.0,22.0,51,0.00,,---,0.00,VWS V14.01,2013-03-04 16:00:00,
2013-03-04 11:03:00,36.5,21.5,29.82,NW,306,16.0,20.0,54,0.00,,---,0.00,VWS V14.01,2013-03-04 16:03:00,
2013-03-04 11:05:00,38.3,21.3,29.81,NW,325,6.0,21.0,50,0.00,,---,0.00,VWS V14.01,2013-03-04 16:05:00,
2013-03-04 11:08:00,36.1,21.1,29.82,NW,305,15.0,24.0,54,0.00,,---,0.00,VWS V14.01,2013-03-04 16:08:00,
2013-03-04 11:10:00,38.4,21.4,29.80,WNW,294,11.0,22.0,50,0.00,,---,0.00,VWS V14.01,2013-03-04 16:10:00,
2013-03-04 11:13:00,36.7,21.6,29.82,WNW,294,5.0,17.0,54,0.00,,---,0.00,VWS V14.01,2013-03-04 16:13:00,
2013-03-04 11:15:00,39.7,21.6,29.80,NW,311,8.0,17.0,48,0.00,,---,0.00,VWS V14.01,2013-03-04 16:15:00,
2013-03-04 11:18:00,36.9,21.4,29.82,WNW,290,18.0,26.0,53,0.00,,---,0.00,VWS V14.01,2013-03-04 16:18:00,
2013-03-04 11:20:00,39.4,21.8,29.80,WNW,303,13.0,19.0,49,0.00,,---,0.00,VWS V14.01,2013-03-04 16:20:00,
2013-03-04 11:23:00,37.1,21.6,29.82,WNW,302,8.0,21.0,53,0.00,,---,0.00,VWS V14.01,2013-03-04 16:23:00,
2013-03-04 11:25:00,39.5,21.9,29.80,WNW,288,12.0,17.0,49,0.00,,---,0.00,VWS V14.01,2013-03-04 16:25:00,
2013-03-04 11:28:00,37.3,21.3,29.82,NNW,345,9.0,22.0,52,0.00,,---,0.00,VWS V14.01,2013-03-04 16:28:00,
2013-03-04 11:30:00,40.0,22.4,29.80,West,265,15.0,21.0,49,0.00,,---,0.00,VWS V14.01,2013-03-04 16:30:00,
2013-03-04 11:33:00,37.6,22.0,29.82,NW,315,5.0,13.0,53,0.00,,---,0.00,VWS V14.01,2013-03-04 16:33:00,
2013-03-04 11:35:00,39.5,21.5,29.80,West,271,11.0,25.0,48,0.00,,---,0.00,VWS V14.01,2013-03-04 16:35:00,
2013-03-04 11:38:00,37.8,21.3,29.81,WNW,294,11.0,18.0,51,0.00,,---,0.00,VWS V14.01,2013-03-04 16:38:00,
2013-03-04 11:40:00,39.3,21.8,29.80,West,266,12.0,21.0,49,0.00,,---,0.00,VWS V14.01,2013-03-04 16:40:00,
2013-03-04 11:43:00,38.2,22.1,29.81,WNW,303,16.0,17.0,52,0.00,,---,0.00,VWS V14.01,2013-03-04 16:43:00,
2013-03-04 11:45:00,39.8,22.7,29.79,NW,314,13.0,17.0,50,0.00,,---,0.00,VWS V14.01,2013-03-04 16:45:00,
2013-03-04 11:48:00,38.4,21.9,29.81,NW,311,9.0,18.0,51,0.00,,---,0.00,VWS V14.01,2013-03-04 16:48:00,
2013-03-04 11:53:00,38.1,22.0,29.81,NW,313,7.0,19.0,52,0.00,,---,0.00,VWS V14.01,2013-03-04 16:53:00,
2013-03-04 11:55:00,39.7,21.6,29.79,WNW,298,14.0,23.0,48,0.00,,---,0.00,VWS V14.01,2013-03-04 16:55:00,
2013-03-04 11:58:00,38.8,21.8,29.81,NW,306,10.0,17.0,50,0.00,,---,0.00,VWS V14.01,2013-03-04 16:58:00,
2013-03-04 12:00:00,39.6,22.0,29.79,WNW,296,13.0,22.0,49,0.00,,---,0.00,VWS V14.01,2013-03-04 17:00:00,
2013-03-04 12:03:00,38.4,21.4,29.80,WNW,291,13.0,21.0,50,0.00,,---,0.00,VWS V14.01,2013-03-04 17:03:00,
2013-03-04 12:08:00,38.4,21.4,29.81,West,275,6.0,22.0,50,0.00,,---,0.00,VWS V14.01,2013-03-04 17:08:00,
2013-03-04 12:10:00,40.5,22.9,29.78,NNW,338,13.0,26.0,49,0.00,,---,0.00,VWS V14.01,2013-03-04 17:10:00,
2013-03-04 12:13:00,39.7,23.1,29.81,WNW,298,9.0,14.0,51,0.00,,---,0.00,VWS V14.01,2013-03-04 17:13:00,
2013-03-04 12:15:00,40.3,22.7,29.78,WNW,299,15.0,21.0,49,0.00,,---,0.00,VWS V14.01,2013-03-04 17:15:00,
2013-03-04 12:18:00,39.6,22.0,29.80,NNW,330,11.0,19.0,49,0.00,,---,0.00,VWS V14.01,2013-03-04 17:18:00,
2013-03-04 12:23:00,39.4,22.3,29.80,WNW,285,14.0,17.0,50,0.00,,---,0.00,VWS V14.01,2013-03-04 17:23:00,
2013-03-04 12:25:00,40.8,23.1,29.78,WNW,295,14.0,18.0,49,0.00,,---,0.00,VWS V14.01,2013-03-04 17:25:00,
2013-03-04 12:28:00,39.9,22.3,29.80,NNW,331,9.0,17.0,49,0.00,,---,0.00,VWS V14.01,2013-03-04 17:28:00,
2013-03-04 12:30:00,40.1,22.0,29.78,NW,310,9.0,17.0,48,0.00,,---,0.00,VWS V14.01,2013-03-04 17:30:00,
2013-03-04 12:33:00,39.9,22.3,29.80,NW,315,13.0,25.0,49,0.00,,---,0.00,VWS V14.01,2013-03-04 17:33:00,
2013-03-04 12:35:00,40.2,22.1,29.78,West,275,10.0,22.0,48,0.00,,---,0.00,VWS V14.01,2013-03-04 17:35:00,
2013-03-04 12:38:00,39.5,21.9,29.79,West,271,7.0,21.0,49,0.00,,---,0.00,VWS V14.01,2013-03-04 17:38:00,
2013-03-04 12:40:00,40.5,22.4,29.78,WNW,302,7.0,19.0,48,0.00,,---,0.00,VWS V14.01,2013-03-04 17:40:00,
2013-03-04 12:43:00,39.7,22.1,29.79,NW,306,14.0,15.0,49,0.00,,---,0.00,VWS V14.01,2013-03-04 17:43:00,
2013-03-04 12:45:00,40.7,22.5,29.78,WSW,248,6.0,22.0,48,0.00,,---,0.00,VWS V14.01,2013-03-04 17:45:00,
2013-03-04 12:48:00,39.9,21.8,29.79,NW,306,10.0,19.0,48,0.00,,---,0.00,VWS V14.01,2013-03-04 17:48:00,
2013-03-04 12:50:00,40.7,23.0,29.78,WNW,295,14.0,22.0,49,0.00,,---,0.00,VWS V14.01,2013-03-04 17:50:00,
2013-03-04 12:53:00,39.8,21.7,29.79,WNW,295,13.0,23.0,48,0.00,,---,0.00,VWS V14.01,2013-03-04 17:53:00,
2013-03-04 12:55:00,40.4,22.3,29.78,WNW,294,14.0,22.0,48,0.00,,---,0.00,VWS V14.01,2013-03-04 17:55:00,
2013-03-04 12:58:00,39.7,22.1,29.79,WNW,296,7.0,22.0,49,0.00,,---,0.00,VWS V14.01,2013-03-04 17:58:00,
2013-03-04 13:00:00,40.6,22.5,29.78,NNW,327,7.0,24.0,48,0.00,,---,0.00,VWS V14.01,2013-03-04 18:00:00,
2013-03-04 13:03:00,39.5,21.9,29.79,WNW,287,5.0,19.0,49,0.00,,---,0.00,VWS V14.01,2013-03-04 18:03:00,
2013-03-04 13:05:00,40.8,22.6,29.78,WNW,295,10.0,23.0,48,0.00,,---,0.00,VWS V14.01,2013-03-04 18:05:00,
2013-03-04 13:08:00,40.5,22.4,29.78,WNW,287,19.0,26.0,48,0.00,,---,0.00,VWS V14.01,2013-03-04 18:08:00,
2013-03-04 13:10:00,40.6,22.5,29.78,WNW,301,6.0,21.0,48,0.00,,---,0.00,VWS V14.01,2013-03-04 18:10:00,
2013-03-04 13:13:00,40.0,22.4,29.78,WNW,299,8.0,21.0,49,0.00,,---,0.00,VWS V14.01,2013-03-04 18:13:00,
2013-03-04 13:15:00,40.7,22.5,29.78,WNW,294,6.0,17.0,48,0.00,,---,0.00,VWS V14.01,2013-03-04 18:15:00,
2013-03-04 13:18:00,40.4,21.8,29.78,NW,313,11.0,17.0,47,0.00,,---,0.00,VWS V14.01,2013-03-04 18:18:00,
2013-03-04 13:20:00,40.9,22.7,29.78,WNW,300,8.0,18.0,48,0.00,,---,0.00,VWS V14.01,2013-03-04 18:20:00,
2013-03-04 13:23:00,40.7,22.5,29.78,WNW,294,13.0,18.0,48,0.00,,---,0.00,VWS V14.01,2013-03-04 18:23:00,
2013-03-04 13:25:00,41.2,23.0,29.78,North,359,9.0,20.0,48,0.00,,---,0.00,VWS V14.01,2013-03-04 18:25:00,
2013-03-04 13:28:00,40.3,22.2,29.78,WSW,251,5.0,17.0,48,0.00,,---,0.00,VWS V14.01,2013-03-04 18:28:00,
2013-03-04 13:29:00,40.2,22.1,29.78,WNW,294,12.0,17.0,48,0.00,,---,0.00,VWS V14.01,2013-03-04 18:29:00,
2013-03-04 13:30:00,40.9,22.7,29.78,WSW,254,10.0,21.0,48,0.00,,---,0.00,VWS V14.01,2013-03-04 18:30:00,
2013-03-04 13:34:00,40.2,22.1,29.78,NNE,16,11.0,22.0,48,0.00,,---,0.00,VWS V14.01,2013-03-04 18:34:00,
2013-03-04 13:35:00,40.7,22.5,29.78,NNW,333,10.0,25.0,48,0.00,,---,0.00,VWS V14.01,2013-03-04 18:35:00,
2013-03-04 13:39:00,40.5,22.4,29.78,NW,323,9.0,19.0,48,0.00,,---,0.00,VWS V14.01,2013-03-04 18:39:00,
2013-03-04 13:40:00,40.8,23.1,29.78,WNW,286,12.0,24.0,49,0.00,,---,0.00,VWS V14.01,2013-03-04 18:40:00,
2013-03-04 13:44:00,40.7,22.5,29.78,WNW,291,9.0,22.0,48,0.00,,---,0.00,VWS V14.01,2013-03-04 18:44:00,
2013-03-04 13:45:00,41.2,23.0,29.78,WNW,282,13.0,20.0,48,0.00,,---,0.00,VWS V14.01,2013-03-04 18:45:00,
2013-03-04 13:49:00,40.7,23.0,29.78,NW,304,10.0,22.0,49,0.00,,---,0.00,VWS V14.01,2013-03-04 18:49:00,
2013-03-04 13:50:00,41.1,22.9,29.78,NW,308,9.0,21.0,48,0.00,,---,0.00,VWS V14.01,2013-03-04 18:50:00,
2013-03-04 13:54:00,40.4,22.3,29.78,WNW,298,11.0,22.0,48,0.00,,---,0.00,VWS V14.01,2013-03-04 18:54:00,
2013-03-04 13:55:00,41.3,23.1,29.78,NW,304,13.0,18.0,48,0.00,,---,0.00,VWS V14.01,2013-03-04 18:55:00,
2013-03-04 13:59:00,40.6,22.5,29.78,NW,324,6.0,24.0,48,0.00,,---,0.00,VWS V14.01,2013-03-04 18:59:00,
2013-03-04 14:00:00,41.2,23.0,29.78,West,278,14.0,17.0,48,0.00,,---,0.00,VWS V14.01,2013-03-04 19:00:00,
2013-03-04 14:04:00,40.8,22.6,29.78,WNW,300,7.0,23.0,48,0.00,,---,0.00,VWS V14.01,2013-03-04 19:04:00,
2013-03-04 14:05:00,41.2,23.0,29.78,NW,310,19.0,27.0,48,0.00,,---,0.00,VWS V14.01,2013-03-04 19:05:00,
2013-03-04 14:09:00,40.6,22.5,29.78,NNW,327,8.0,21.0,48,0.00,,---,0.00,VWS V14.01,2013-03-04 19:09:00,
2013-03-04 14:10:00,41.0,22.8,29.78,WNW,292,8.0,26.0,48,0.00,,---,0.00,VWS V14.01,2013-03-04 19:10:00,
2013-03-04 14:14:00,40.7,22.5,29.78,NW,307,6.0,17.0,48,0.00,,---,0.00,VWS V14.01,2013-03-04 19:14:00,
2013-03-04 14:15:00,41.5,23.3,29.77,NW,307,8.0,18.0,48,0.00,,---,0.00,VWS V14.01,2013-03-04 19:15:00,
2013-03-04 14:19:00,40.9,22.7,29.78,WNW,294,12.0,18.0,48,0.00,,---,0.00,VWS V14.01,2013-03-04 19:19:00,
2013-03-04 14:20:00,41.7,23.0,29.78,NW,326,8.0,24.0,47,0.00,,---,0.00,VWS V14.01,2013-03-04 19:20:00,
2013-03-04 14:24:00,41.1,22.9,29.78,NNW,330,13.0,20.0,48,0.00,,---,0.00,VWS V14.01,2013-03-04 19:24:00,
2013-03-04 14:25:00,41.4,23.2,29.78,WNW,294,12.0,21.0,48,0.00,,---,0.00,VWS V14.01,2013-03-04 19:25:00,
2013-03-04 14:29:00,40.9,22.7,29.78,NW,315,13.0,21.0,48,0.00,,---,0.00,VWS V14.01,2013-03-04 19:29:00,
2013-03-04 14:30:00,41.3,23.1,29.78,NW,315,13.0,23.0,48,0.00,,---,0.00,VWS V14.01,2013-03-04 19:30:00,
2013-03-04 14:34:00,40.7,22.5,29.78,NW,323,15.0,25.0,48,0.00,,---,0.00,VWS V14.01,2013-03-04 19:34:00,
2013-03-04 14:35:00,41.3,23.1,29.78,West,281,5.0,23.0,48,0.00,,---,0.00,VWS V14.01,2013-03-04 19:35:00,
2013-03-04 14:39:00,40.8,23.1,29.78,NW,309,9.0,24.0,49,0.00,,---,0.00,VWS V14.01,2013-03-04 19:39:00,
2013-03-04 14:40:00,41.9,23.2,29.78,NW,305,15.0,17.0,47,0.00,,---,0.00,VWS V14.01,2013-03-04 19:40:00,
2013-03-04 14:44:00,41.2,23.0,29.78,NW,319,13.0,20.0,48,0.00,,---,0.00,VWS V14.01,2013-03-04 19:44:00,
2013-03-04 14:45:00,41.4,23.2,29.78,NW,307,5.0,15.0,48,0.00,,---,0.00,VWS V14.01,2013-03-04 19:45:00,
2013-03-04 14:49:00,41.0,22.8,29.78,WNW,303,12.0,21.0,48,0.00,,---,0.00,VWS V14.01,2013-03-04 19:49:00,
2013-03-04 14:50:00,41.5,22.8,29.78,NW,306,10.0,21.0,47,0.00,,---,0.00,VWS V14.01,2013-03-04 19:50:00,
2013-03-04 14:54:00,41.3,23.1,29.78,NW,309,7.0,18.0,48,0.00,,---,0.00,VWS V14.01,2013-03-04 19:54:00,
2013-03-04 14:55:00,41.2,22.5,29.78,NW,304,11.0,22.0,47,0.00,,---,0.00,VWS V14.01,2013-03-04 19:55:00,
2013-03-04 14:59:00,41.2,23.0,29.78,WNW,296,14.0,17.0,48,0.00,,---,0.00,VWS V14.01,2013-03-04 19:59:00,
2013-03-04 15:00:00,41.1,22.9,29.78,WNW,291,8.0,18.0,48,0.00,,---,0.00,VWS V14.01,2013-03-04 20:00:00,
2013-03-04 15:04:00,41.3,23.1,29.78,WNW,301,21.0,26.0,48,0.00,,---,0.00,VWS V14.01,2013-03-04 20:04:00,
2013-03-04 15:05:00,41.1,22.9,29.78,NW,306,4.0,21.0,48,0.00,,---,0.00,VWS V14.01,2013-03-04 20:05:00,
2013-03-04 15:09:00,41.0,22.8,29.78,NW,315,6.0,26.0,48,0.00,,---,0.00,VWS V14.01,2013-03-04 20:09:00,
2013-03-04 15:10:00,41.4,23.7,29.78,NW,314,13.0,17.0,49,0.00,,---,0.00,VWS V14.01,2013-03-04 20:10:00,
2013-03-04 15:14:00,41.4,23.2,29.77,NNW,329,4.0,18.0,48,0.00,,---,0.00,VWS V14.01,2013-03-04 20:14:00,
2013-03-04 15:15:00,41.2,23.0,29.78,North,351,7.0,17.0,48,0.00,,---,0.00,VWS V14.01,2013-03-04 20:15:00,
2013-03-04 15:19:00,41.7,23.0,29.78,WNW,288,14.0,24.0,47,0.00,,---,0.00,VWS V14.01,2013-03-04 20:19:00,
2013-03-04 15:20:00,41.1,22.9,29.78,NW,322,13.0,21.0,48,0.00,,---,0.00,VWS V14.01,2013-03-04 20:20:00,
2013-03-04 15:24:00,41.4,23.2,29.78,West,281,13.0,21.0,48,0.00,,---,0.00,VWS V14.01,2013-03-04 20:24:00,
2013-03-04 15:25:00,41.0,22.8,29.79,NW,321,12.0,22.0,48,0.00,,---,0.00,VWS V14.01,2013-03-04 20:25:00,
2013-03-04 15:29:00,41.3,23.1,29.78,WNW,300,18.0,23.0,48,0.00,,---,0.00,VWS V14.01,2013-03-04 20:29:00,
2013-03-04 15:30:00,40.9,22.7,29.78,WNW,301,11.0,18.0,48,0.00,,---,0.00,VWS V14.01,2013-03-04 20:30:00,
2013-03-04 15:34:00,41.2,23.0,29.78,NW,324,9.0,23.0,48,0.00,,---,0.00,VWS V14.01,2013-03-04 20:34:00,
2013-03-04 15:35:00,41.0,22.8,29.78,NW,323,6.0,22.0,48,0.00,,---,0.00,VWS V14.01,2013-03-04 20:35:00,
2013-03-04 15:39:00,41.9,23.7,29.78,WNW,287,11.0,17.0,48,0.00,,---,0.00,VWS V14.01,2013-03-04 20:39:00,
2013-03-04 15:40:00,41.2,23.0,29.78,WNW,300,13.0,13.0,48,0.00,,---,0.00,VWS V14.01,2013-03-04 20:40:00,
2013-03-04 15:44:00,41.4,23.2,29.78,WNW,298,6.0,15.0,48,0.00,,---,0.00,VWS V14.01,2013-03-04 20:44:00,
2013-03-04 15:45:00,41.1,22.9,29.79,WNW,299,5.0,16.0,48,0.00,,---,0.00,VWS V14.01,2013-03-04 20:45:00,
2013-03-04 15:49:00,41.6,22.9,29.78,NW,326,16.0,21.0,47,0.00,,---,0.00,VWS V14.01,2013-03-04 20:49:00,
2013-03-04 15:50:00,41.1,22.9,29.79,NW,318,18.0,18.0,48,0.00,,---,0.00,VWS V14.01,2013-03-04 20:50:00,
2013-03-04 15:54:00,41.2,22.5,29.78,WNW,287,8.0,22.0,47,0.00,,---,0.00,VWS V14.01,2013-03-04 20:54:00,
2013-03-04 15:55:00,41.0,22.3,29.79,NW,311,4.0,18.0,47,0.00,,---,0.00,VWS V14.01,2013-03-04 20:55:00,
2013-03-04 15:59:00,41.1,22.9,29.78,NNW,329,11.0,18.0,48,0.00,,---,0.00,VWS V14.01,2013-03-04 20:59:00,
2013-03-04 16:00:00,40.8,22.6,29.79,NW,305,6.0,18.0,48,0.00,,---,0.00,VWS V14.01,2013-03-04 21:00:00,
2013-03-04 16:04:00,41.1,22.9,29.78,NW,318,8.0,21.0,48,0.00,,---,0.00,VWS V14.01,2013-03-04 21:04:00,
2013-03-04 16:05:00,40.7,22.5,29.79,NW,309,15.0,24.0,48,0.00,,---,0.00,VWS V14.01,2013-03-04 21:05:00,
2013-03-04 16:09:00,41.4,23.7,29.78,WNW,290,8.0,17.0,49,0.00,,---,0.00,VWS V14.01,2013-03-04 21:09:00,
2013-03-04 16:10:00,40.6,22.0,29.79,NW,317,15.0,19.0,47,0.00,,---,0.00,VWS V14.01,2013-03-04 21:10:00,
2013-03-04 16:14:00,41.2,23.0,29.78,NW,319,10.0,17.0,48,0.00,,---,0.00,VWS V14.01,2013-03-04 21:14:00,
2013-03-04 16:15:00,40.4,22.3,29.80,NW,326,9.0,20.0,48,0.00,,---,0.00,VWS V14.01,2013-03-04 21:15:00,
2013-03-04 16:19:00,41.2,23.0,29.78,NW,310,11.0,21.0,48,0.00,,---,0.00,VWS V14.01,2013-03-04 21:19:00,
2013-03-04 16:20:00,40.4,22.3,29.80,NW,304,9.0,19.0,48,0.00,,---,0.00,VWS V14.01,2013-03-04 21:20:00,
2013-03-04 16:24:00,41.1,22.9,29.79,WNW,294,7.0,22.0,48,0.00,,---,0.00,VWS V14.01,2013-03-04 21:24:00,
2013-03-04 16:25:00,40.3,22.2,29.80,WNW,286,7.0,15.0,48,0.00,,---,0.00,VWS V14.01,2013-03-04 21:25:00,
2013-03-04 16:29:00,40.9,22.7,29.78,NW,323,10.0,18.0,48,0.00,,---,0.00,VWS V14.01,2013-03-04 21:29:00,
2013-03-04 16:30:00,40.2,22.1,29.80,NW,309,5.0,21.0,48,0.00,,---,0.00,VWS V14.01,2013-03-04 21:30:00,
2013-03-04 16:34:00,41.0,22.8,29.78,NW,321,5.0,22.0,48,0.00,,---,0.00,VWS V14.01,2013-03-04 21:34:00,
2013-03-04 16:35:00,40.0,21.9,29.80,NW,308,8.0,18.0,48,0.00,,---,0.00,VWS V14.01,2013-03-04 21:35:00,
2013-03-04 16:39:00,41.2,23.0,29.78,NW,321,9.0,12.0,48,0.00,,---,0.00,VWS V14.01,2013-03-04 21:39:00,
2013-03-04 16:40:00,39.8,21.7,29.81,WNW,287,6.0,16.0,48,0.00,,---,0.00,VWS V14.01,2013-03-04 21:40:00,
2013-03-04 16:44:00,41.1,22.9,29.79,NW,315,9.0,16.0,48,0.00,,---,0.00,VWS V14.01,2013-03-04 21:44:00,
2013-03-04 16:45:00,39.7,22.1,29.81,NW,310,8.0,17.0,49,0.00,,---,0.00,VWS V14.01,2013-03-04 21:45:00,
2013-03-04 16:49:00,41.1,22.9,29.79,NNW,329,10.0,16.0,48,0.00,,---,0.00,VWS V14.01,2013-03-04 21:49:00,
2013-03-04 16:50:00,39.6,22.0,29.81,NW,311,7.0,23.0,49,0.00,,---,0.00,VWS V14.01,2013-03-04 21:50:00,
2013-03-04 16:54:00,41.0,22.8,29.79,NW,325,8.0,18.0,48,0.00,,---,0.00,VWS V14.01,2013-03-04 21:54:00,
2013-03-04 16:55:00,39.5,21.9,29.81,NW,307,8.0,16.0,49,0.00,,---,0.00,VWS V14.01,2013-03-04 21:55:00,
2013-03-04 16:59:00,40.9,22.7,29.79,WNW,296,14.0,18.0,48,0.00,,---,0.00,VWS V14.01,2013-03-04 21:59:00,
2013-03-04 17:00:00,39.3,21.8,29.82,NW,317,5.0,18.0,49,0.00,,---,0.00,VWS V14.01,2013-03-04 22:00:00,
2013-03-04 17:04:00,40.7,22.5,29.79,West,271,13.0,24.0,48,0.00,,---,0.00,VWS V14.01,2013-03-04 22:04:00,
2013-03-04 17:05:00,39.2,22.1,29.82,NW,307,7.0,14.0,50,0.00,,---,0.00,VWS V14.01,2013-03-04 22:05:00,
2013-03-04 17:09:00,40.6,22.0,29.79,WNW,282,14.0,19.0,47,0.00,,---,0.00,VWS V14.01,2013-03-04 22:09:00,
2013-03-04 17:10:00,38.9,21.9,29.82,WNW,297,5.0,8.0,50,0.00,,---,0.00,VWS V14.01,2013-03-04 22:10:00,
2013-03-04 17:14:00,40.5,22.4,29.80,WNW,300,17.0,20.0,48,0.00,,---,0.00,VWS V14.01,2013-03-04 22:14:00,
2013-03-04 17:15:00,38.7,22.1,29.82,NW,309,5.0,10.0,51,0.00,,---,0.00,VWS V14.01,2013-03-04 22:15:00,
2013-03-04 17:19:00,40.4,22.3,29.80,WNW,300,10.0,19.0,48,0.00,,---,0.00,VWS V14.01,2013-03-04 22:19:00,
2013-03-04 17:20:00,38.6,22.5,29.82,WNW,296,6.0,17.0,52,0.00,,---,0.00,VWS V14.01,2013-03-04 22:20:00,
2013-03-04 17:24:00,40.3,22.2,29.80,NW,305,5.0,15.0,48,0.00,,---,0.00,VWS V14.01,2013-03-04 22:24:00,
2013-03-04 17:25:00,38.6,22.0,29.82,NW,305,11.0,16.0,51,0.00,,---,0.00,VWS V14.01,2013-03-04 22:25:00,
2013-03-04 17:29:00,40.2,22.1,29.80,NW,307,9.0,21.0,48,0.00,,---,0.00,VWS V14.01,2013-03-04 22:29:00,
2013-03-04 17:30:00,38.4,22.3,29.83,NW,307,15.0,16.0,52,0.00,,---,0.00,VWS V14.01,2013-03-04 22:30:00,
2013-03-04 17:34:00,40.0,21.9,29.80,West,277,8.0,18.0,48,0.00,,---,0.00,VWS V14.01,2013-03-04 22:34:00,
2013-03-04 17:35:00,38.3,22.2,29.83,WNW,293,8.0,15.0,52,0.00,,---,0.00,VWS V14.01,2013-03-04 22:35:00,
2013-03-04 17:39:00,39.9,21.8,29.81,NW,317,7.0,16.0,48,0.00,,---,0.00,VWS V14.01,2013-03-04 22:39:00,
2013-03-04 17:40:00,38.2,22.1,29.83,WNW,302,5.0,14.0,52,0.00,,---,0.00,VWS V14.01,2013-03-04 22:40:00,
2013-03-04 17:44:00,39.7,22.1,29.81,WNW,293,6.0,17.0,49,0.00,,---,0.00,VWS V14.01,2013-03-04 22:44:00,
2013-03-04 17:45:00,38.1,22.5,29.83,WNW,285,5.0,13.0,53,0.00,,---,0.00,VWS V14.01,2013-03-04 22:45:00,
2013-03-04 17:49:00,39.6,22.0,29.81,NW,312,8.0,23.0,49,0.00,,---,0.00,VWS V14.01,2013-03-04 22:49:00,
2013-03-04 17:50:00,37.9,22.3,29.83,NW,310,5.0,11.0,53,0.00,,---,0.00,VWS V14.01,2013-03-04 22:50:00,
2013-03-04 17:54:00,39.5,21.9,29.81,NW,309,13.0,16.0,49,0.00,,---,0.00,VWS V14.01,2013-03-04 22:54:00,
2013-03-04 17:55:00,37.8,22.7,29.84,NW,317,4.0,14.0,54,0.00,,---,0.00,VWS V14.01,2013-03-04 22:55:00,
2013-03-04 17:59:00,39.3,21.8,29.82,NNW,327,7.0,18.0,49,0.00,,---,0.00,VWS V14.01,2013-03-04 22:59:00,
2013-03-04 18:00:00,37.7,22.6,29.84,NW,306,7.0,14.0,54,0.00,,---,0.00,VWS V14.01,2013-03-04 23:00:00,
2013-03-04 18:04:00,39.2,22.1,29.82,WNW,302,13.0,14.0,50,0.00,,---,0.00,VWS V14.01,2013-03-04 23:04:00,
2013-03-04 18:05:00,37.6,22.5,29.84,NW,311,13.0,15.0,54,0.00,,---,0.00,VWS V14.01,2013-03-04 23:05:00,
2013-03-04 18:09:00,39.0,22.0,29.82,NW,317,2.0,8.0,50,0.00,,---,0.00,VWS V14.01,2013-03-04 23:09:00,
2013-03-04 18:10:00,37.5,22.4,29.85,West,270,8.0,13.0,54,0.00,,---,0.00,VWS V14.01,2013-03-04 23:10:00,
2013-03-04 18:14:00,38.7,22.1,29.82,NW,305,6.0,10.0,51,0.00,,---,0.00,VWS V14.01,2013-03-04 23:14:00,
2013-03-04 18:15:00,37.4,22.3,29.85,WNW,300,6.0,15.0,54,0.00,,---,0.00,VWS V14.01,2013-03-04 23:15:00,
2013-03-04 18:19:00,38.6,22.5,29.82,NW,309,9.0,17.0,52,0.00,,---,0.00,VWS V14.01,2013-03-04 23:19:00,
2013-03-04 18:20:00,37.3,22.2,29.85,WNW,298,7.0,11.0,54,0.00,,---,0.00,VWS V14.01,2013-03-04 23:20:00,
2013-03-04 18:24:00,38.6,22.0,29.82,NW,325,8.0,15.0,51,0.00,,---,0.00,VWS V14.01,2013-03-04 23:24:00,
2013-03-04 18:25:00,37.1,22.4,29.86,NW,304,7.0,11.0,55,0.00,,---,0.00,VWS V14.01,2013-03-04 23:25:00,
2013-03-04 18:29:00,38.4,22.3,29.83,West,275,14.0,16.0,52,0.00,,---,0.00,VWS V14.01,2013-03-04 23:29:00,
2013-03-04 18:30:00,37.1,22.4,29.86,WNW,291,9.0,11.0,55,0.00,,---,0.00,VWS V14.01,2013-03-04 23:30:00,
2013-03-04 18:34:00,38.4,22.3,29.83,NW,305,9.0,15.0,52,0.00,,---,0.00,VWS V14.01,2013-03-04 23:34:00,
2013-03-04 18:35:00,37.0,22.4,29.86,West,275,7.0,11.0,55,0.00,,---,0.00,VWS V14.01,2013-03-04 23:35:00,
2013-03-04 18:39:00,38.3,22.2,29.83,WNW,290,6.0,14.0,52,0.00,,---,0.00,VWS V14.01,2013-03-04 23:39:00,
2013-03-04 18:40:00,36.9,22.3,29.86,WNW,298,4.0,14.0,55,0.00,,---,0.00,VWS V14.01,2013-03-04 23:40:00,
2013-03-04 18:44:00,38.1,22.5,29.83,WNW,297,8.0,13.0,53,0.00,,---,0.00,VWS V14.01,2013-03-04 23:44:00,
2013-03-04 18:45:00,36.8,22.6,29.86,WNW,294,7.0,10.0,56,0.00,,---,0.00,VWS V14.01,2013-03-04 23:45:00,
2013-03-04 18:49:00,38.0,22.4,29.83,West,281,7.0,11.0,53,0.00,,---,0.00,VWS V14.01,2013-03-04 23:49:00,
2013-03-04 18:50:00,36.7,22.5,29.86,NW,324,10.0,15.0,56,0.00,,---,0.00,VWS V14.01,2013-03-04 23:50:00,
2013-03-04 18:54:00,37.8,22.2,29.84,WNW,286,4.0,14.0,53,0.00,,---,0.00,VWS V14.01,2013-03-04 23:54:00,
2013-03-04 18:55:00,36.6,22.4,29.86,West,279,10.0,11.0,56,0.00,,---,0.00,VWS V14.01,2013-03-04 23:55:00,
2013-03-04 18:59:00,37.7,22.1,29.84,West,280,8.0,13.0,53,0.00,,---,0.00,VWS V14.01,2013-03-04 23:59:00,
2013-03-04 19:00:00,36.6,22.0,29.87,NW,311,8.0,12.0,55,0.00,,---,0.00,VWS V14.01,2013-03-05 00:00:00,
2013-03-04 19:04:00,37.6,22.5,29.84,NW,307,11.0,11.0,54,0.00,,---,0.00,VWS V14.01,2013-03-05 00:04:00,
2013-03-04 19:05:00,36.4,21.8,29.87,NW,319,17.0,17.0,55,0.00,,---,0.00,VWS V14.01,2013-03-05 00:05:00,
2013-03-04 19:09:00,37.5,22.4,29.85,WNW,298,5.0,13.0,54,0.00,,---,0.00,VWS V14.01,2013-03-05 00:09:00,
2013-03-04 19:10:00,36.4,21.8,29.87,WNW,303,9.0,16.0,55,0.00,,---,0.00,VWS V14.01,2013-03-05 00:10:00,
2013-03-04 19:14:00,37.4,22.3,29.85,WNW,297,6.0,15.0,54,0.00,,---,0.00,VWS V14.01,2013-03-05 00:14:00,
2013-03-04 19:15:00,36.2,21.6,29.87,North,359,4.0,13.0,55,0.00,,---,0.00,VWS V14.01,2013-03-05 00:15:00,
2013-03-04 19:19:00,37.4,22.3,29.85,WNW,292,7.0,11.0,54,0.00,,---,0.00,VWS V14.01,2013-03-05 00:19:00,
2013-03-04 19:20:00,36.2,21.6,29.87,NW,310,8.0,11.0,55,0.00,,---,0.00,VWS V14.01,2013-03-05 00:20:00,
2013-03-04 19:24:00,37.2,22.5,29.86,NW,310,8.0,9.0,55,0.00,,---,0.00,VWS V14.01,2013-03-05 00:24:00,
2013-03-04 19:25:00,36.1,21.9,29.87,NW,316,0.0,12.0,56,0.00,,---,0.00,VWS V14.01,2013-03-05 00:25:00,
2013-03-04 19:29:00,37.1,22.4,29.86,NW,319,8.0,11.0,55,0.00,,---,0.00,VWS V14.01,2013-03-05 00:29:00,
2013-03-04 19:30:00,35.8,21.6,29.87,NNW,340,6.0,14.0,56,0.00,,---,0.00,VWS V14.01,2013-03-05 00:30:00,
2013-03-04 19:34:00,37.0,22.4,29.86,WNW,293,6.0,11.0,55,0.00,,---,0.00,VWS V14.01,2013-03-05 00:34:00,
2013-03-04 19:35:00,35.7,21.6,29.88,NW,323,7.0,9.0,56,0.00,,---,0.00,VWS V14.01,2013-03-05 00:35:00,
2013-03-04 19:39:00,36.9,22.3,29.86,NW,324,4.0,14.0,55,0.00,,---,0.00,VWS V14.01,2013-03-05 00:39:00,
2013-03-04 19:40:00,35.5,21.8,29.87,WNW,300,3.0,9.0,57,0.00,,---,0.00,VWS V14.01,2013-03-05 00:40:00,
2013-03-04 19:44:00,36.8,22.6,29.86,NW,317,3.0,10.0,56,0.00,,---,0.00,VWS V14.01,2013-03-05 00:44:00,
2013-03-04 19:45:00,35.3,21.6,29.88,NNW,327,4.0,7.0,57,0.00,,---,0.00,VWS V14.01,2013-03-05 00:45:00,
2013-03-04 19:49:00,36.6,22.4,29.86,WNW,294,12.0,15.0,56,0.00,,---,0.00,VWS V14.01,2013-03-05 00:49:00,
2013-03-04 19:50:00,35.2,21.9,29.88,NW,317,7.0,11.0,58,0.00,,---,0.00,VWS V14.01,2013-03-05 00:50:00,
2013-03-04 19:54:00,36.6,22.4,29.86,NW,311,8.0,11.0,56,0.00,,---,0.00,VWS V14.01,2013-03-05 00:54:00,
2013-03-04 19:55:00,35.2,21.9,29.88,WNW,296,4.0,11.0,58,0.00,,---,0.00,VWS V14.01,2013-03-05 00:55:00,
2013-03-04 19:59:00,36.5,22.3,29.87,NE,44,3.0,12.0,56,0.00,,---,0.00,VWS V14.01,2013-03-05 00:59:00,
2013-03-04 20:00:00,35.0,21.7,29.88,NW,307,2.0,7.0,58,0.00,,---,0.00,VWS V14.01,2013-03-05 01:00:00,
2013-03-04 20:04:00,36.4,21.8,29.87,WNW,292,11.0,15.0,55,0.00,,---,0.00,VWS V14.01,2013-03-05 01:04:00,
2013-03-04 20:05:00,34.7,21.9,29.88,WNW,300,6.0,7.0,59,0.00,,---,0.00,VWS V14.01,2013-03-05 01:05:00,
2013-03-04 20:09:00,36.4,21.8,29.87,NW,304,8.0,16.0,55,0.00,,---,0.00,VWS V14.01,2013-03-05 01:09:00,
2013-03-04 20:10:00,34.7,21.9,29.88,NW,306,5.0,8.0,59,0.00,,---,0.00,VWS V14.01,2013-03-05 01:10:00,
2013-03-04 20:14:00,36.2,21.6,29.87,NW,315,11.0,13.0,55,0.00,,---,0.00,VWS V14.01,2013-03-05 01:14:00,
2013-03-04 20:15:00,34.6,22.2,29.88,NW,314,5.0,9.0,60,0.00,,---,0.00,VWS V14.01,2013-03-05 01:15:00,
2013-03-04 20:19:00,36.1,21.9,29.87,North,9,6.0,11.0,56,0.00,,---,0.00,VWS V14.01,2013-03-05 01:19:00,
2013-03-04 20:20:00,34.5,22.1,29.88,NW,317,4.0,8.0,60,0.00,,---,0.00,VWS V14.01,2013-03-05 01:20:00,
2013-03-04 20:24:00,36.1,21.9,29.87,NW,316,1.0,12.0,56,0.00,,---,0.00,VWS V14.01,2013-03-05 01:24:00,
2013-03-04 20:25:00,34.4,22.0,29.88,WNW,302,6.0,11.0,60,0.00,,---,0.00,VWS V14.01,2013-03-05 01:25:00,
2013-03-04 20:29:00,35.9,21.8,29.87,NW,318,9.0,14.0,56,0.00,,---,0.00,VWS V14.01,2013-03-05 01:29:00,
2013-03-04 20:30:00,34.4,22.0,29.88,NW,314,5.0,13.0,60,0.00,,---,0.00,VWS V14.01,2013-03-05 01:30:00,
2013-03-04 20:34:00,35.7,21.6,29.88,NW,319,5.0,9.0,56,0.00,,---,0.00,VWS V14.01,2013-03-05 01:34:00,
2013-03-04 20:35:00,34.3,22.3,29.89,NW,306,4.0,10.0,61,0.00,,---,0.00,VWS V14.01,2013-03-05 01:35:00,
2013-03-04 20:39:00,35.5,21.8,29.87,NW,326,2.0,9.0,57,0.00,,---,0.00,VWS V14.01,2013-03-05 01:39:00,
2013-03-04 20:40:00,34.4,22.0,29.89,NW,306,8.0,11.0,60,0.00,,---,0.00,VWS V14.01,2013-03-05 01:40:00,
2013-03-04 20:44:00,35.3,21.6,29.88,WNW,301,7.0,7.0,57,0.00,,---,0.00,VWS V14.01,2013-03-05 01:44:00,
2013-03-04 20:45:00,34.3,22.3,29.89,NW,316,5.0,9.0,61,0.00,,---,0.00,VWS V14.01,2013-03-05 01:45:00,
2013-03-04 20:49:00,35.2,21.9,29.88,WNW,288,10.0,10.0,58,0.00,,---,0.00,VWS V14.01,2013-03-05 01:49:00,
2013-03-04 20:50:00,34.2,22.2,29.89,NW,325,7.0,9.0,61,0.00,,---,0.00,VWS V14.01,2013-03-05 01:50:00,
2013-03-04 20:54:00,35.2,21.9,29.88,WNW,297,6.0,11.0,58,0.00,,---,0.00,VWS V14.01,2013-03-05 01:54:00,
2013-03-04 20:55:00,33.9,22.3,29.89,NW,319,7.0,8.0,62,0.00,,---,0.00,VWS V14.01,2013-03-05 01:55:00,
2013-03-04 20:59:00,35.0,21.7,29.88,NW,307,1.0,7.0,58,0.00,,---,0.00,VWS V14.01,2013-03-05 01:59:00,
2013-03-04 21:00:00,33.8,22.6,29.90,WNW,297,0.0,9.0,63,0.00,,---,0.00,VWS V14.01,2013-03-05 02:00:00,
2013-03-04 21:04:00,34.7,21.9,29.88,NW,308,4.0,7.0,59,0.00,,---,0.00,VWS V14.01,2013-03-05 02:04:00,
2013-03-04 21:05:00,33.8,22.2,29.90,NW,325,3.0,9.0,62,0.00,,---,0.00,VWS V14.01,2013-03-05 02:05:00,
2013-03-04 21:09:00,34.6,21.8,29.88,NW,304,3.0,8.0,59,0.00,,---,0.00,VWS V14.01,2013-03-05 02:09:00,
2013-03-04 21:10:00,33.7,22.5,29.90,NW,324,6.0,9.0,63,0.00,,---,0.00,VWS V14.01,2013-03-05 02:10:00,
2013-03-04 21:14:00,34.6,22.2,29.88,WNW,295,7.0,9.0,60,0.00,,---,0.00,VWS V14.01,2013-03-05 02:14:00,
2013-03-04 21:15:00,33.6,22.4,29.90,NW,326,1.0,10.0,63,0.00,,---,0.00,VWS V14.01,2013-03-05 02:15:00,
2013-03-04 21:19:00,34.5,22.1,29.88,NW,313,3.0,8.0,60,0.00,,---,0.00,VWS V14.01,2013-03-05 02:19:00,
2013-03-04 21:20:00,33.5,22.6,29.90,NW,307,2.0,8.0,64,0.00,,---,0.00,VWS V14.01,2013-03-05 02:20:00,
2013-03-04 21:24:00,34.4,22.0,29.88,NW,317,7.0,9.0,60,0.00,,---,0.00,VWS V14.01,2013-03-05 02:24:00,
2013-03-04 21:25:00,33.5,22.6,29.90,NW,304,7.0,10.0,64,0.00,,---,0.00,VWS V14.01,2013-03-05 02:25:00,
2013-03-04 21:29:00,34.4,22.0,29.88,NW,321,9.0,13.0,60,0.00,,---,0.00,VWS V14.01,2013-03-05 02:29:00,
2013-03-04 21:30:00,33.4,22.5,29.90,WNW,291,6.0,9.0,64,0.00,,---,0.00,VWS V14.01,2013-03-05 02:30:00,
2013-03-04 21:34:00,34.3,21.9,29.89,NNW,342,5.0,10.0,60,0.00,,---,0.00,VWS V14.01,2013-03-05 02:34:00,
2013-03-04 21:35:00,33.4,22.5,29.90,NW,315,7.0,9.0,64,0.00,,---,0.00,VWS V14.01,2013-03-05 02:35:00,
2013-03-04 21:39:00,34.4,22.0,29.89,NW,319,3.0,11.0,60,0.00,,---,0.00,VWS V14.01,2013-03-05 02:39:00,
2013-03-04 21:40:00,33.5,22.6,29.90,NW,309,5.0,13.0,64,0.00,,---,0.00,VWS V14.01,2013-03-05 02:40:00,
2013-03-04 21:44:00,34.3,22.3,29.89,NW,305,6.0,9.0,61,0.00,,---,0.00,VWS V14.01,2013-03-05 02:44:00,
2013-03-04 21:45:00,33.5,22.6,29.90,WNW,302,4.0,11.0,64,0.00,,---,0.00,VWS V14.01,2013-03-05 02:45:00,
2013-03-04 21:49:00,34.2,22.2,29.89,WNW,302,2.0,8.0,61,0.00,,---,0.00,VWS V14.01,2013-03-05 02:49:00,
2013-03-04 21:50:00,33.5,22.6,29.90,WNW,300,4.0,9.0,64,0.00,,---,0.00,VWS V14.01,2013-03-05 02:50:00,
2013-03-04 21:54:00,33.9,22.3,29.89,NW,321,3.0,7.0,62,0.00,,---,0.00,VWS V14.01,2013-03-05 02:54:00,
2013-03-04 21:55:00,33.5,23.0,29.90,NW,324,2.0,11.0,65,0.00,,---,0.00,VWS V14.01,2013-03-05 02:55:00,
2013-03-04 21:59:00,33.8,22.5,29.90,WNW,297,3.0,9.0,63,0.00,,---,0.00,VWS V14.01,2013-03-05 02:59:00,
2013-03-04 22:00:00,33.7,23.2,29.91,North,9,3.0,14.0,65,0.00,,---,0.00,VWS V14.01,2013-03-05 03:00:00,
2013-03-04 22:04:00,33.8,22.2,29.90,NNW,327,6.0,9.0,62,0.00,,---,0.00,VWS V14.01,2013-03-05 03:04:00,
2013-03-04 22:05:00,33.7,22.8,29.91,WNW,303,2.0,8.0,64,0.00,,---,0.00,VWS V14.01,2013-03-05 03:05:00,
2013-03-04 22:09:00,33.7,22.5,29.90,WNW,286,9.0,9.0,63,0.00,,---,0.00,VWS V14.01,2013-03-05 03:09:00,
2013-03-04 22:10:00,33.7,22.8,29.91,WNW,298,6.0,11.0,64,0.00,,---,0.00,VWS V14.01,2013-03-05 03:10:00,
2013-03-04 22:14:00,33.6,22.4,29.90,NNW,338,6.0,10.0,63,0.00,,---,0.00,VWS V14.01,2013-03-05 03:14:00,
2013-03-04 22:15:00,33.7,22.8,29.91,WNW,287,12.0,12.0,64,0.00,,---,0.00,VWS V14.01,2013-03-05 03:15:00,
2013-03-04 22:18:00,33.6,22.4,29.90,NW,320,4.0,8.0,63,0.00,,---,0.00,VWS V14.01,2013-03-05 03:18:00,
2013-03-04 22:20:00,33.9,23.0,29.91,WNW,294,6.0,12.0,64,0.00,,---,0.00,VWS V14.01,2013-03-05 03:20:00,
2013-03-04 22:23:00,33.5,22.6,29.90,WNW,303,3.0,10.0,64,0.00,,---,0.00,VWS V14.01,2013-03-05 03:23:00,
2013-03-04 22:25:00,33.9,23.0,29.91,NNW,330,6.0,16.0,64,0.00,,---,0.00,VWS V14.01,2013-03-05 03:25:00,
2013-03-04 22:28:00,33.4,22.5,29.90,NW,319,3.0,7.0,64,0.00,,---,0.00,VWS V14.01,2013-03-05 03:28:00,
2013-03-04 22:30:00,33.8,22.9,29.91,NW,306,6.0,19.0,64,0.00,,---,0.00,VWS V14.01,2013-03-05 03:30:00,
2013-03-04 22:33:00,33.4,22.5,29.90,NW,325,7.0,9.0,64,0.00,,---,0.00,VWS V14.01,2013-03-05 03:33:00,
2013-03-04 22:35:00,33.7,22.8,29.91,NNW,334,8.0,14.0,64,0.00,,---,0.00,VWS V14.01,2013-03-05 03:35:00,
2013-03-04 22:38:00,33.5,22.6,29.90,WNW,290,5.0,13.0,64,0.00,,---,0.00,VWS V14.01,2013-03-05 03:38:00,
2013-03-04 22:40:00,33.8,22.9,29.91,WNW,298,6.0,11.0,64,0.00,,---,0.00,VWS V14.01,2013-03-05 03:40:00,
2013-03-04 22:43:00,33.6,22.7,29.90,NW,311,5.0,11.0,64,0.00,,---,0.00,VWS V14.01,2013-03-05 03:43:00,
2013-03-04 22:45:00,33.7,22.8,29.91,NW,319,5.0,12.0,64,0.00,,---,0.00,VWS V14.01,2013-03-05 03:45:00,
2013-03-04 22:48:00,33.5,22.6,29.90,WNW,300,5.0,9.0,64,0.00,,---,0.00,VWS V14.01,2013-03-05 03:48:00,
2013-03-04 22:50:00,33.6,22.7,29.91,WNW,284,7.0,13.0,64,0.00,,---,0.00,VWS V14.01,2013-03-05 03:50:00,
2013-03-04 22:53:00,33.5,22.6,29.91,NW,318,0.0,11.0,64,0.00,,---,0.00,VWS V14.01,2013-03-05 03:53:00,
2013-03-04 22:55:00,33.5,22.6,29.91,NW,319,8.0,10.0,64,0.00,,---,0.00,VWS V14.01,2013-03-05 03:55:00,
2013-03-04 22:58:00,33.7,22.8,29.91,WNW,302,7.0,14.0,64,0.00,,---,0.00,VWS V14.01,2013-03-05 03:58:00,
2013-03-04 23:00:00,33.5,23.0,29.91,NW,311,6.0,13.0,65,0.00,,---,0.00,VWS V14.01,2013-03-05 04:00:00,
2013-03-04 23:03:00,33.7,22.8,29.91,NW,306,6.0,8.0,64,0.00,,---,0.00,VWS V14.01,2013-03-05 04:03:00,
2013-03-04 23:05:00,33.5,22.6,29.91,NW,305,8.0,12.0,64,0.00,,---,0.00,VWS V14.01,2013-03-05 04:05:00,
2013-03-04 23:08:00,33.7,22.8,29.91,NNW,340,3.0,11.0,64,0.00,,---,0.00,VWS V14.01,2013-03-05 04:08:00,
2013-03-04 23:10:00,33.4,22.9,29.91,NW,314,5.0,13.0,65,0.00,,---,0.00,VWS V14.01,2013-03-05 04:10:00,
2013-03-04 23:13:00,33.7,22.8,29.91,NW,309,7.0,12.0,64,0.00,,---,0.00,VWS V14.01,2013-03-05 04:13:00,
2013-03-04 23:15:00,33.2,22.7,29.91,NW,306,5.0,11.0,65,0.00,,---,0.00,VWS V14.01,2013-03-05 04:15:00,
2013-03-04 23:18:00,33.9,23.0,29.91,NW,308,5.0,12.0,64,0.00,,---,0.00,VWS V14.01,2013-03-05 04:18:00,
2013-03-04 23:20:00,33.2,22.7,29.92,WNW,290,5.0,11.0,65,0.00,,---,0.00,VWS V14.01,2013-03-05 04:20:00,
2013-03-04 23:23:00,33.9,23.0,29.91,WNW,284,10.0,16.0,64,0.00,,---,0.00,VWS V14.01,2013-03-05 04:23:00,
2013-03-04 23:25:00,33.1,22.6,29.92,NW,314,6.0,9.0,65,0.00,,---,0.00,VWS V14.01,2013-03-05 04:25:00,
2013-03-04 23:28:00,33.8,22.9,29.91,NNW,338,10.0,19.0,64,0.00,,---,0.00,VWS V14.01,2013-03-05 04:28:00,
2013-03-04 23:30:00,33.1,22.6,29.92,NW,313,6.0,10.0,65,0.00,,---,0.00,VWS V14.01,2013-03-05 04:30:00,
2013-03-04 23:33:00,33.7,22.8,29.91,NW,326,5.0,14.0,64,0.00,,---,0.00,VWS V14.01,2013-03-05 04:33:00,
2013-03-04 23:35:00,33.1,22.6,29.92,NW,314,6.0,10.0,65,0.00,,---,0.00,VWS V14.01,2013-03-05 04:35:00,
2013-03-04 23:38:00,33.8,22.9,29.91,WNW,302,11.0,11.0,64,0.00,,---,0.00,VWS V14.01,2013-03-05 04:38:00,
2013-03-04 23:40:00,33.0,22.5,29.92,NW,311,4.0,11.0,65,0.00,,---,0.00,VWS V14.01,2013-03-05 04:40:00,
2013-03-04 23:43:00,33.7,22.8,29.91,NW,309,5.0,12.0,64,0.00,,---,0.00,VWS V14.01,2013-03-05 04:43:00,
2013-03-04 23:45:00,32.9,22.8,29.92,NNW,331,8.0,10.0,66,0.00,,---,0.00,VWS V14.01,2013-03-05 04:45:00,
2013-03-04 23:48:00,33.7,22.8,29.91,NW,318,5.0,13.0,64,0.00,,---,0.00,VWS V14.01,2013-03-05 04:48:00,
2013-03-04 23:50:00,32.9,22.8,29.92,NW,310,6.0,9.0,66,0.00,,---,0.00,VWS V14.01,2013-03-05 04:50:00,
2013-03-04 23:53:00,33.5,22.6,29.91,NNW,327,4.0,8.0,64,0.00,,---,0.00,VWS V14.01,2013-03-05 04:53:00,
2013-03-04 23:55:00,32.8,22.7,29.92,NW,313,6.0,11.0,66,0.00,,---,0.00,VWS V14.01,2013-03-05 04:55:00,
2013-03-04 23:58:00,33.5,22.6,29.91,NW,308,9.0,13.0,64,0.00,,---,0.00,VWS V14.01,2013-03-05 04:58:00,